Time,TemperatureF,DewpointF,PressureIn,WindDirection,WindDirectionDegrees,WindSpeedMPH,WindSpeedGustMPH,Humidity,HourlyPrecipIn,Conditions,Clouds,dailyrainin,SoftwareType,DateUTC
2013-07-01 02:00:00,46.0,27.0,-100.00,North,-999,-999.0,-999.0,46,-99.99,,,0.00,,2013-07-01 08:00:00,
2013-07-01 03:00:00,45.0,25.0,-100.00,North,-999,-999.0,-999.0,46,-99.99,,,0.00,,2013-07-01 09:00:00,
2013-07-01 03:53:00,45.0,25.0,-100.00,North,-999,-999.0,-999.0,46,-99.99,,,0.00,,2013-07-01 09:53:00,
2013-07-01 04:00:00,43.0,24.0,-100.00,North,-999,-999.0,-999.0,46,-99.99,,,0.00,,2013-07-01 10:00:00,
2013-07-01 04:52:00,43.0,24.0,-100.00,North,-999,-999.0,-999.0,46,-99.99,,,0.00,,2013-07-01 10:52:00,
2013-07-01 05:00:00,44.0,25.0,-100.00,North,-999,-999.0,-999.0,46,-99.99,,,0.00,,2013-07-01 11:00:00,
2013-07-01 05:52:00,44.0,25.0,-100.00,North,-999,-999.0,-999.0,46,-99.99,,,0.00,,2013-07-01 11:52:00,
2013-07-01 06:00:00,45.0,26.0,-100.00,North,-999,-999.0,-999.0,47,-99.99,,,0.00,,2013-07-01 12:00:00,
2013-07-01 06:53:00,45.0,26.0,-100.00,North,-999,-999.0,-999.0,47,-99.99,,,0.00,,2013-07-01 12:53:00,
2013-07-01 07:00:00,49.0,30.0,-100.00,North,-999,-999.0,-999.0,46,-99.99,,,0.00,,2013-07-01 13:00:00,
2013-07-01 07:53:00,49.0,30.0,-100.00,North,-999,-999.0,-999.0,46,-99.99,,,0.00,,2013-07-01 13:53:00,
2013-07-01 08:00:00,56.0,36.0,-100.00,North,-999,-999.0,-999.0,46,-99.99,,,-99.99,,2013-07-01 14:00:00,
2013-07-01 09:00:00,58.0,38.0,-100.00,North,-999,-999.0,-999.0,46,-99.99,,,0.00,,2013-07-01 15:00:00,
2013-07-01 09:53:00,58.0,38.0,-100.00,North,-999,-999.0,-999.0,46,-99.99,,,0.00,,2013-07-01 15:53:00,
2013-07-01 10:00:00,60.0,39.0,-100.00,North,-999,-999.0,-999.0,45,-99.99,,,0.00,,2013-07-01 16:00:00,
2013-07-01 10:53:00,60.0,39.0,-100.00,North,-999,-999.0,-999.0,45,-99.99,,,0.00,,2013-07-01 16:53:00,
2013-07-01 11:00:00,61.0,39.0,-100.00,North,-999,-999.0,-999.0,45,-99.99,,,0.00,,2013-07-01 17:00:00,
2013-07-01 12:00:00,66.0,44.0,-100.00,North,-999,-999.0,-999.0,45,-99.99,,,0.00,,2013-07-01 18:00:00,
2013-07-01 12:53:00,66.0,44.0,-100.00,North,-999,-999.0,-999.0,45,-99.99,,,0.00,,2013-07-01 18:53:00,
2013-07-01 13:00:00,65.0,43.0,-100.00,North,-999,-999.0,-999.0,45,-99.99,,,-99.99,,2013-07-01 19:00:00,
2013-07-01 14:00:00,61.0,40.0,-100.00,North,-999,-999.0,-999.0,45,-99.99,,,0.00,,2013-07-01 20:00:00,
2013-07-01 14:52:00,61.0,40.0,-100.00,North,-999,-999.0,-999.0,45,-99.99,,,0.00,,2013-07-01 20:52:00,
2013-07-01 15:00:00,63.0,-99.9,-100.00,North,-999,-999.0,-999.0,-999,-99.99,,,0.00,,2013-07-01 21:00:00,
2013-07-01 16:00:00,62.0,41.0,-100.00,North,-999,-999.0,-999.0,45,-99.99,,,0.00,,2013-07-01 22:00:00,
2013-07-01 16:53:00,62.0,41.0,-100.00,North,-999,-999.0,-999.0,45,-99.99,,,0.00,,2013-07-01 22:53:00,
2013-07-01 17:00:00,61.0,39.0,-100.00,North,-999,-999.0,-999.0,45,-99.99,,,0.00,,2013-07-01 23:00:00,
2013-07-01 18:00:00,58.0,37.0,-100.00,North,-999,-999.0,-999.0,45,-99.99,,,0.00,,2013-07-02 00:00:00,
2013-07-01 19:00:00,58.0,37.0,-100.00,North,-999,-999.0,-999.0,45,-99.99,,,0.00,,2013-07-02 01:00:00,
2013-07-01 20:00:00,56.0,-99.9,-100.00,North,-999,-999.0,-999.0,-999,-99.99,,,0.00,,2013-07-02 02:00:00,
2013-07-01 20:53:00,56.0,-99.9,-100.00,North,-999,-999.0,-999.0,-999,-99.99,,,0.00,,2013-07-02 02:53:00,
2013-07-01 21:00:00,52.0,32.0,-100.00,North,-999,-999.0,-999.0,45,-99.99,,,0.00,,2013-07-02 03:00:00,
2013-07-01 21:43:00,52.0,31.0,-100.00,North,-999,-999.0,-999.0,45,-99.99,,,0.00,,2013-07-02 03:43:00,
2013-07-01 21:53:00,52.0,32.0,-100.00,North,-999,-999.0,-999.0,45,-99.99,,,0.00,,2013-07-02 03:53:00,
2013-07-01 22:00:00,51.0,30.0,-100.00,North,-999,-999.0,-999.0,45,-99.99,,,0.00,,2013-07-02 04:00:00,
2013-07-01 22:53:00,51.0,30.0,-100.00,North,-999,-999.0,-999.0,45,-99.99,,,0.00,,2013-07-02 04:53:00,
2013-07-01 23:00:00,48.0,28.0,-100.00,North,-999,-999.0,-999.0,45,-99.99,,,0.00,,2013-07-02 05:00:00,
2013-07-01 23:43:00,48.0,28.0,-100.00,North,-999,-999.0,-999.0,45,-99.99,,,0.00,,2013-07-02 05:43:00,
2013-07-01 23:53:00,48.0,28.0,-100.00,North,-999,-999.0,-999.0,45,-99.99,,,0.00,,2013-07-02 05:53:00,